Reno, NV

10:39 AM PDT on July 27, 2017 (GMT -0700)
Reno-Tahoe International

Weather History for KRNO - June, 2013

Change the Weather History Date:

Thursday, June 13, 2013

  Actual Average Record
Temperature  
Mean Temperature 65 °F 67 °F  
Max Temperature 79 °F 82 °F 101 °F (1940)
Min Temperature 50 °F 51 °F 30 °F (1952)
Degree Days  
Heating Degree Days 0 2  
Month to date heating degree days 0 38  
Since 1 June heating degree days 0 38  
Since 1 July heating degree days 4434 4906  
Cooling Degree Days 0 4  
Month to date cooling degree days 125 42  
Year to date cooling degree days 161 79  
Since 1 June cooling degree days 125 42  
Growing Degree Days 14 (Base 50)    
Moisture  
Dew Point 21 °F    
Average Humidity 22    
Maximum Humidity 35    
Minimum Humidity 8    
Precipitation  
Precipitation 0.00 in 0.02 in 0.89 in (1922)
Month to date precipitation 0.11 0.26  
Year to date precipitation 1.42 4.03  
Snow  
Snow 0.00 in 0.00 in T in (1923)
Month to date snowfall 0.0 0.0  
Since 1 June snowfall 0.0 0.0  
Since 1 July snowfall 9.4 21.8  
Snow Depth 0.00 in    
Sea Level Pressure  
Sea Level Pressure 29.96 in    
Wind  
Wind Speed 9 mph (NW)    
Max Wind Speed 25 mph    
Max Gust Speed 35 mph    
Visibility 10 miles    
Events      
T = Trace of Precipitation, MM = Missing Value Source: NWS Daily Summary

Daily Weather History Graph

Daily Weather History Graph

Search for Another Location

Airport or City:

Trip Planner

Search our weather history database for the weather conditions in past years. The results will help you decide how hot, cold, wet, or windy it might be!

Date:

Astronomy

Jun. 13, 2013 Rise Set
Actual Time 5:31 AM PDT 8:27 PM PDT
Civil Twilight 4:58 AM PDT 8:59 PM PDT
Nautical Twilight 4:17 AM PDT 9:40 PM PDT
Astronomical Twilight 3:30 AM PDT 10:28 PM PDT
Moon 10:11 AM PDT (6/13) 11:37 PM PDT (6/13)
Length of Visible Light 16h 00m
Length of Day
14h 56m
Waxing Crescent, 22% of the Moon is Illuminated
Jun 13
Waxing Crescent
Jun 16
First Quarter
Jun 23
Full
Jun 29
Last Quarter
Jul 8
New

Hourly Weather History & Observations

Time (PDT) Temp. Dew Point Humidity Pressure Visibility Wind Dir Wind Speed Gust Speed Precip Events Conditions
12:55 AM 60.1 °F 28.9 °F 31% 29.88 in 10.0 mi East 6.9 mph - N/A   Clear
1:55 AM 57.9 °F 28.0 °F 32% 29.89 in 10.0 mi NNE 8.1 mph - N/A   Clear
2:55 AM 55.9 °F 28.0 °F 34% 29.91 in 10.0 mi North 5.8 mph - N/A   Clear
3:55 AM 55.0 °F 25.0 °F 31% 29.91 in 10.0 mi Calm Calm - N/A   Clear
4:55 AM 53.1 °F 25.0 °F 34% 29.94 in 10.0 mi WNW 4.6 mph - N/A   Clear
5:55 AM 51.1 °F 23.0 °F 33% 29.95 in 10.0 mi West 6.9 mph - N/A   Partly Cloudy
6:55 AM 53.1 °F 25.0 °F 34% 29.96 in 10.0 mi Calm Calm - N/A   Clear
7:55 AM 55.0 °F 24.1 °F 30% 29.97 in 10.0 mi Calm Calm - N/A   Clear
8:55 AM 60.1 °F 27.0 °F 28% 29.98 in 10.0 mi Calm Calm - N/A   Clear
9:55 AM 64.0 °F 21.9 °F 20% 29.98 in 10.0 mi ESE 3.5 mph - N/A   Partly Cloudy
10:55 AM 72.0 °F 12.0 °F 10% 29.96 in 10.0 mi Variable 6.9 mph - N/A   Partly Cloudy
11:55 AM 73.9 °F 14.0 °F 10% 29.95 in 10.0 mi West 12.7 mph 17.3 mph N/A   Partly Cloudy
12:55 PM 75.9 °F 12.0 °F 9% 29.94 in 10.0 mi NW 15.0 mph 24.2 mph N/A   Partly Cloudy
1:55 PM 78.1 °F 12.0 °F 8% 29.92 in 10.0 mi West 17.3 mph 34.5 mph N/A   Partly Cloudy
2:55 PM 78.1 °F 12.0 °F 8% 29.94 in 10.0 mi West 16.1 mph 31.1 mph N/A   Partly Cloudy
3:55 PM 78.1 °F 16.0 °F 10% 29.93 in 10.0 mi West 19.6 mph 26.5 mph N/A   Partly Cloudy
4:55 PM 77.0 °F 18.0 °F 11% 29.94 in 10.0 mi WNW 18.4 mph 28.8 mph N/A   Partly Cloudy
5:55 PM 75.0 °F 24.1 °F 15% 29.95 in 10.0 mi West 16.1 mph 20.7 mph N/A   Partly Cloudy
6:55 PM 73.0 °F 21.9 °F 15% 29.97 in 10.0 mi West 12.7 mph 21.9 mph N/A   Partly Cloudy
7:55 PM 71.1 °F 19.0 °F 14% 30.00 in 10.0 mi NNW 11.5 mph - N/A   Partly Cloudy
8:55 PM 66.9 °F 21.9 °F 18% 30.01 in 10.0 mi NNW 10.4 mph - N/A   Clear
9:55 PM 64.0 °F 23.0 °F 21% 30.04 in 10.0 mi WNW 11.5 mph - N/A   Clear
10:55 PM 62.1 °F 25.0 °F 24% 30.06 in 10.0 mi NNE 8.1 mph - N/A   Clear
11:55 PM 60.1 °F 28.0 °F 30% 30.07 in 10.0 mi NNE 9.2 mph - N/A   Clear